Humidity-temperature Sensor

Selected Measurement Type: Air Temperature

 
Air Temperature [°C]     6 entries per hour
Showing data from 2/3/2021 (00:00:00 Z) to 1/31/2021 (00:01:00 Z)
Previous Next [ Day | 3-Days | 7-Days ]
First Last
Prev [ Day | 3-Days | 7-Days ] Next
First Last

Start Time:     :
End Time:     :     
Time (in GMT) :00 :50 :40 :30 :20 :10
Previous Next [ Day | 3-Days | 7-Days ]
First Last
Prev [ Day | 3-Days | 7-Days ] Next
First Last


123 => good data
MM => data is determined as missing
-- => data not received/configured
Back to Top Back to Top
2/3/2021 00:00 to 23:10 26.64 26.64 26.90 26.93 26.85 26.73
2/2/2021 23:00 to 22:10 26.85 26.73 26.77 26.75 26.60 26.54
2/2/2021 22:00 to 21:10 26.57 26.55 26.42 26.53 26.53 26.51
2/2/2021 21:00 to 20:10 26.46 26.47 26.35 26.46 26.32 26.43
2/2/2021 20:00 to 19:10 26.44 26.40 26.35 26.47 26.40 26.43
2/2/2021 19:00 to 18:10 26.50 26.55 26.42 26.44 26.50 26.56
2/2/2021 18:00 to 17:10 26.56 26.60 26.58 26.64 26.62 26.73
2/2/2021 17:00 to 16:10 26.82 26.82 26.82 26.76 26.79 26.78
2/2/2021 16:00 to 15:10 26.74 26.72 26.88 26.89 26.87 26.85
2/2/2021 15:00 to 14:10 26.84 26.80 26.68 26.53 26.48 26.45
2/2/2021 14:00 to 13:10 26.51 26.35 26.22 26.11 26.03 25.89
2/2/2021 13:00 to 12:10 25.97 25.86 25.95 25.83 25.83 25.88
2/2/2021 12:00 to 11:10 25.88 25.80 25.81 25.87 25.86 25.85
2/2/2021 11:00 to 10:10 25.82 25.89 25.79 25.88 25.86 25.88
2/2/2021 10:00 to 9:10 25.82 25.85 25.84 25.84 25.79 25.75
2/2/2021 09:00 to 8:10 25.82 25.92 25.81 25.89 25.89 25.77
2/2/2021 08:00 to 7:10 25.80 25.90 25.81 25.86 25.88 25.81
2/2/2021 07:00 to 6:10 25.82 25.87 25.88 25.86 25.78 25.79
2/2/2021 06:00 to 5:10 25.75 25.89 25.80 25.76 25.76 25.70
2/2/2021 05:00 to 4:10 25.84 25.82 25.85 25.78 25.82 25.75
2/2/2021 04:00 to 3:10 25.73 25.90 25.75 25.72 25.79 25.78
2/2/2021 03:00 to 2:10 25.82 25.84 25.67 25.66 25.69 25.56
2/2/2021 02:00 to 1:10 25.50 25.41 25.34 25.29 25.33 25.21
2/2/2021 01:00 to 0:10 25.33 25.38 25.28 25.31 25.49 25.51
2/2/2021 00:00 to 23:10 25.53 25.56 25.56 25.64 25.58 25.60
2/1/2021 23:00 to 22:10 25.52 25.49 25.47 25.43 25.40 25.32
2/1/2021 22:00 to 21:10 25.46 25.30 25.34 25.29 25.31 25.37
2/1/2021 21:00 to 20:10 25.38 25.36 25.26 25.29 25.32 25.32
2/1/2021 20:00 to 19:10 25.24 25.30 25.29 25.33 25.28 25.33
2/1/2021 19:00 to 18:10 25.30 25.34 25.39 25.44 25.29 25.44
2/1/2021 18:00 to 17:10 25.39 25.43 25.53 25.47 25.52 25.61
2/1/2021 17:00 to 16:10 25.63 25.63 25.68 25.71 25.75 25.64
2/1/2021 16:00 to 15:10 25.71 25.66 25.69 25.56 25.52 25.41
2/1/2021 15:00 to 14:10 25.45 25.37 25.31 25.21 25.07 25.04
2/1/2021 14:00 to 13:10 24.98 25.02 24.91 24.83 24.77 24.72
2/1/2021 13:00 to 12:10 24.66 24.62 24.56 24.59 24.60 24.56
2/1/2021 12:00 to 11:10 24.56 24.60 24.54 24.58 24.63 24.53
2/1/2021 11:00 to 10:10 24.58 24.52 24.66 24.62 24.51 24.63
2/1/2021 10:00 to 9:10 24.54 24.67 24.59 24.63 24.59 24.64
2/1/2021 09:00 to 8:10 24.61 24.59 24.60 24.64 24.65 24.72
2/1/2021 08:00 to 7:10 24.66 24.71 24.72 24.72 24.69 24.78
2/1/2021 07:00 to 6:10 24.78 24.82 24.86 24.83 24.89 25.00
2/1/2021 06:00 to 5:10 24.94 25.03 25.05 25.06 25.03 25.09
2/1/2021 05:00 to 4:10 25.05 25.09 25.06 25.11 25.12 25.13
2/1/2021 04:00 to 3:10 25.13 25.16 25.16 25.19 25.19 25.24
2/1/2021 03:00 to 2:10 25.18 25.18 25.21 25.21 25.22 25.27
2/1/2021 02:00 to 1:10 25.27 25.22 25.20 25.23 25.20 25.23
2/1/2021 01:00 to 0:10 25.19 25.25 25.29 25.27 25.40 25.47
2/1/2021 00:00 to 23:10 25.56 25.40 25.58 25.60 25.68 25.48
1/31/2021 23:00 to 22:10 25.52 25.56 25.64 25.51 25.53 25.55
1/31/2021 22:00 to 21:10 25.55 25.45 25.45 25.51 25.36 25.38
1/31/2021 21:00 to 20:10 25.42 25.38 25.44 25.33 25.44 25.39
1/31/2021 20:00 to 19:10 25.44 25.48 25.46 25.50 25.43 25.42
1/31/2021 19:00 to 18:10 25.49 25.47 25.60 25.59 25.74 25.78
1/31/2021 18:00 to 17:10 25.75 25.69 25.53 25.61 25.74 25.60
1/31/2021 17:00 to 16:10 25.58 25.70 25.74 25.83 25.53 25.65
1/31/2021 16:00 to 15:10 25.64 25.33 25.41 25.31 25.28 25.32
1/31/2021 15:00 to 14:10 25.26 25.26 25.23 25.09 25.12 25.03
1/31/2021 14:00 to 13:10 24.96 24.98 24.92 24.88 24.85 24.81
1/31/2021 13:00 to 12:10 24.73 24.68 24.64 24.66 24.76 24.66
1/31/2021 12:00 to 11:10 24.72 24.64 24.66 24.63 24.57 24.56
1/31/2021 11:00 to 10:10 24.53 24.62 24.67 24.65 24.58 24.58
1/31/2021 10:00 to 9:10 24.52 24.48 24.57 24.56 24.52 24.48
1/31/2021 09:00 to 8:10 24.51 24.44 24.53 24.59 24.51 24.58
1/31/2021 08:00 to 7:10 24.59 24.57 24.47 24.43 24.57 24.53
1/31/2021 07:00 to 6:10 24.55 24.49 24.60 24.62 24.60 24.66
1/31/2021 06:00 to 5:10 24.67 24.70 24.72 24.68 24.69 24.82
1/31/2021 05:00 to 4:10 24.73 24.73 24.69 24.63 24.64 24.56
1/31/2021 04:00 to 3:10 24.57 24.60 24.60 24.59 24.56 24.55
1/31/2021 03:00 to 2:10 24.65 24.68 24.68 24.72 24.78 24.66
1/31/2021 02:00 to 1:10 24.66 24.83 24.89 24.81 24.84 24.86
1/31/2021 01:00 to 0:10 24.88 24.90 25.05 25.00 25.05 25.20